Flag for Austria Weather past 2 weeks in Graz, Styria, Austria

Now
54 °F

Partly sunny.


Feels Like: 50 °F
Forecast: 35 / 64 °F
Wind: 10 mph from North

Location: Graz-Thalerhof-Flughafen


UV Index: 5 (Moderate)

Visibility: N/A


Pressure: 30.07 "Hg

Humidity: 35%

Dew point: 27 °F

Location of GrazLocation

Historic Weather in Graz

°F

Graz temperature yesterday

Maximum temperature yesterday: 54 °F (at 1:20 PM)
Minimum temperature yesterday: 34 °F (at 5:50 AM)
Average temperature yesterday: 45 °F

Past Weeks' High & Low Weather Summary

 TemperatureHumidityPressure
High75 °F (Apr 8, 3:20 PM)100% (Apr 6, 5:50 AM)30.24 "Hg (Apr 6, 5:50 AM)
Low32 °F (Apr 10, 5:50 AM)31% (Apr 8, 4:20 PM)29.71 "Hg (Apr 3, 4:50 PM)
Average52 °F65%29.99 "Hg
* Reported Apr 2 2:20 PM — Apr 17 2:20 PM, Graz, Weather by CustomWeather, © 2014

Note: Actual official high and low records may vary slightly from our data, if they occured in-between our weather recording intervals... More about our weather records

Advertising

Historic Weather Conditions — Data for Previous 24 hours

 ConditionsComfort  
Time TempWeatherWind HumidityBarometerVisibility
2:20 PM
Apr 17
54 °FBroken clouds.12 mph35%30.07 "HgN/A
1:50 PM57 °FPartly sunny.14 mph31%30.07 "HgN/A
1:20 PM55 °FPartly sunny.15 mph33%30.07 "HgN/A
12:50 PM52 °FScattered clouds.16 mph35%30.09 "HgN/A
12:20 PM54 °FPassing clouds.17 mph35%30.09 "HgN/A
11:50 AM54 °FPassing clouds.16 mph35%30.12 "HgN/A
11:20 AM52 °FPassing clouds.15 mph38%30.12 "HgN/A
10:50 AM50 °FPassing clouds.16 mph40%30.15 "HgN/A
10:20 AM50 °FPassing clouds.16 mph40%30.15 "HgN/A
9:50 AM48 °FPassing clouds.17 mph43%30.15 "HgN/A
9:20 AM48 °FPassing clouds.20 mph43%30.15 "HgN/A
8:50 AM46 °FPassing clouds.16 mph46%30.15 "HgN/A
8:20 AM46 °FPassing clouds.13 mph50%30.15 "HgN/A
7:50 AM45 °FPassing clouds.13 mph49%30.18 "HgN/A
7:20 AM43 °FScattered clouds.15 mph53%30.18 "HgN/A
6:50 AM43 °FPassing clouds.16 mph53%30.15 "HgN/A
6:20 AM39 °FPassing clouds.10 mph61%30.15 "HgN/A
5:50 AM43 °FPassing clouds.14 mph53%30.15 "HgN/A
5:20 AM41 °FPassing clouds.13 mph57%30.18 "HgN/A
4:50 AM41 °FPassing clouds.13 mph53%30.18 "HgN/A
4:20 AM41 °FPassing clouds.9 mph53%30.18 "HgN/A
3:50 AM41 °FPassing clouds.9 mph53%30.21 "HgN/A
3:20 AM41 °FPassing clouds.12 mph53%30.21 "HgN/A
2:50 AM37 °FPassing clouds.8 mph60%30.21 "HgN/A
2:20 AM37 °FChilly.6 mph60%30.21 "HgN/A
1:50 AM37 °FChilly.3 mph60%30.24 "HgN/A
1:20 AM39 °FPassing clouds.2 mph56%30.24 "HgN/A
12:50 AM39 °FPassing clouds.5 mph61%30.24 "HgN/A
12:20 AM43 °FPassing clouds.10 mph49%30.24 "HgN/A
11:50 PM
Apr 16
45 °FPassing clouds.8 mph46%30.24 "HgN/A
10:50 PM43 °FPassing clouds.9 mph53%30.24 "HgN/A
10:20 PM43 °FPassing clouds.9 mph57%30.24 "HgN/A
9:50 PM45 °FPassing clouds.9 mph53%30.24 "HgN/A
9:20 PM45 °FPassing clouds.9 mph57%30.21 "HgN/A
8:50 PM45 °FPassing clouds.14 mph57%30.21 "HgN/A
8:20 PM45 °FPassing clouds.14 mph57%30.21 "HgN/A
7:50 PM45 °FPassing clouds.13 mph57%30.21 "HgN/A
7:20 PM45 °FPassing clouds.16 mph57%30.21 "HgN/A
6:50 PM46 °FPassing clouds.16 mph53%30.18 "HgN/A
6:20 PM48 °FPassing clouds.17 mph50%30.18 "HgN/A
5:50 PM50 °FScattered clouds.22 mph43%30.18 "HgN/A
5:20 PM52 °FScattered clouds.20 mph38%30.18 "HgN/A
4:50 PM54 °FScattered clouds.15 mph38%30.15 "HgN/A
4:20 PM52 °FScattered clouds.22 mph41%30.15 "HgN/A
3:50 PM54 °FScattered clouds.20 mph38%30.15 "HgN/A
3:20 PM54 °FScattered clouds.18 mph38%30.15 "HgN/A
Weather by CustomWeather, © 2014

See weather overview